Location: Fremont
(37.5483°N, 121.9886°W)
Time: 23:24:27
(UTC+00:00)

Daily predictions for brighter satellites

Satellite Brightness Start Highest point End
(mag) Time Altitude Azimuth Time Altitude Azimuth Time Altitude Azimuth
CZ-4C R/B 3.8 12:06:00 42° NNW 12:06:00 42° NNW 12:08:30 10° NNW
Helios 1B 4.5 12:08:21 58° WSW 12:08:40 60° WSW 12:12:58 10° NNW
BREEZE-M DEB (TANK) 4.5 12:07:01 34° WSW 12:10:36 77° NNW 12:38:24 10° ENE
Cosmos 1777 Rocket 4.1 12:06:06 10° NNW 12:11:08 50° WSW 12:16:08 10° S
Cosmos 2278 4.2 12:10:41 38° W 12:11:37 41° WNW 12:17:00 10° N
Meteor 1-4 Rocket 3.2 12:10:04 22° SSE 12:11:58 50° E 12:15:21 10° NNE
NOSS 3-3 (A) 3.8 12:15:21 33° SW 12:17:59 72° NW 12:24:17 10° NNE
NOSS 3-3 (C) 3.7 12:15:31 33° SW 12:18:06 73° NW 12:24:22 10° NNE
IRIDIUM 114 4.4 12:14:13 10° N 12:19:28 80° E 12:24:40 10° S
Lacrosse 5 3.3 12:19:12 21° NW 12:20:24 23° NNW 12:24:24 10° NNE
Cosmos 1727 Rocket 4.2 12:14:53 10° S 12:21:13 78° E 12:27:33 10° N
Meteor 1-27 Rocket 4.5 12:17:14 10° S 12:23:01 58° E 12:28:50 10° NNE
ADEOS 4.1 12:18:13 10° NNE 12:23:23 59° E 12:28:30 10° S
Cosmos 1238 Rocket 4.1 12:18:40 10° NNW 12:25:03 53° W 12:30:52 10° SSW
ERS-2 2.0 12:22:00 10° SSE 12:25:39 89° W 12:29:20 10° NNW
Cosmos 389 Rocket 4.5 12:27:24 16° NW 12:27:24 16° NW 12:28:37 10° NNW
IDEFIX/ARIANE 42P 3.8 12:23:11 10° NNW 12:27:09 22° WNW 12:27:17 22° WNW
IRIDIUM 103 4.2 12:23:21 10° N 12:28:36 84° W 12:33:48 10° S
Landsat 5 4.0 12:28:24 10° S 12:32:40 42° W 12:36:58 10° NNW
Cosmos 1812 3.0 12:36:03 28° SW 12:37:35 43° W 12:41:16 10° N
ARIANE 5 R/B 4.5 12:37:41 10° NW 12:39:13 12° WNW 12:39:13 12° WNW
Cosmos 44 4.1 12:38:47 24° W 12:40:04 28° NW 12:44:01 10° N
SL-4 R/B 2.8 12:36:43 16° SSW 12:40:09 55° SE 12:44:49 10° ENE
X-37B 2.7 12:38:41 14° NW 12:40:27 21° N 12:42:57 10° NE
IRIDIUM 106 4.4 12:41:47 10° NNW 12:46:53 55° W 12:51:57 10° SSW
FALCON 9 DEB 3.6 12:44:56 17° SSW 12:47:20 57° SE 12:50:42 10° NE
deb Chang Zheng 4 3.4 12:43:57 10° N 12:48:15 75° WNW 12:52:29 10° SSW
Cosmos 1500 3.7 12:46:28 10° NNW 12:49:59 35° W 12:53:28 10° SSW
Cosmos 1707 Rocket 3.5 12:48:38 10° SSW 12:52:54 65° W 12:57:13 10° N
Cosmos 2360 Rocket 3.3 12:47:42 10° S 12:53:06 47° ESE 12:58:31 10° NE
USA 234 3.5 12:46:56 10° SSE 12:53:07 45° SW 12:59:20 10° WNW
Cosmos 841 Rocket 4.1 12:48:07 10° S 12:53:12 58° ESE 12:58:21 10° NNE
Cosmos 2228 Rocket 4.3 12:53:21 19° W 12:54:40 21° WNW 12:58:02 10° NNW
Cosmos 1666 2.5 12:52:15 10° N 12:56:04 76° W 12:59:50 10° S
ADEOS Rocket 3.2 12:49:09 10° S 12:56:14 67° WSW 13:02:38 10° NNW
Cosmos 921 Rocket 4.1 12:56:13 18° WSW 12:58:04 24° WNW 13:01:28 10° NNW
CZ-4B R/B 4.0 12:56:57 10° N 13:01:17 86° WNW 13:05:43 10° SSW
Cosmos 1570 Rocket 4.4 12:56:09 10° S 13:01:23 69° ESE 13:06:42 10° NNE
CZ-4B R/B 3.6 12:57:58 10° NNE 13:01:32 49° E 13:05:00 10° S
ALOS 2.2 12:58:29 10° N 13:03:09 75° WNW 13:07:48 10° SSW
Cosmos 1980 Rocket 3.8 13:00:54 13° W 13:03:33 18° NW 13:07:18 10° NNW
Cosmos 1763 Rocket 3.7 12:59:15 10° SSW 13:04:25 54° WNW 13:09:38 10° N
Cosmos 2322 Rocket 2.2 13:02:19 10° SSW 13:07:56 67° WNW 13:13:37 10° NNE
Cosmos 2237 4.5 13:05:22 10° SSW 13:11:04 76° ESE 13:16:47 10° NNE
METEOR-M 4.1 13:07:00 10° N 13:12:22 78° WNW 13:17:42 10° SSW
FENGYUN 3A 3.7 13:08:03 10° N 13:13:23 63° WNW 13:18:42 10° SSW
CZ-4B R/B 1.8 13:10:57 10° SSW 13:13:47 33° W 13:16:41 10° NNW
SL-16 R/B 2.5 13:09:49 10° SW 13:15:14 46° WNW 13:20:42 10° N
ERBS 3.8 13:13:26 12° W 13:15:50 23° NW 13:18:36 10° NNE
Cosmos 1733 Rocket 3.0 13:12:16 10° N 13:16:39 86° WSW 13:20:57 10° S
Cosmos 2263 Rocket 2.4 13:11:21 10° NNW 13:16:49 50° WSW 13:22:15 10° S
Okean 1 4.3 13:13:55 10° S 13:17:50 53° E 13:21:48 10° NNE
Cosmos 2173 Rocket 4.0 13:13:59 10° N 13:20:19 75° W 13:26:39 10° S
Cosmos 1844 Rocket 4.4 13:18:49 10° N 13:24:01 37° ENE 13:29:12 10° SE
CZ-2C R/B 3.9 13:21:11 10° NNW 13:24:45 19° WNW 13:28:22 10° WSW
SAR-Lupe-4 4.2 13:21:52 10° SSW 13:25:08 34° W 13:28:26 10° NNW
Cosmos 1743 3.3 13:22:45 10° N 13:26:31 62° E 13:30:16 10° SSE
Cosmos 1862 Rocket 3.6 13:22:16 10° SSW 13:26:37 58° W 13:30:56 10° N
Cosmos 2061 Rocket 4.3 13:20:19 10° N 13:26:46 81° E 13:33:12 10° S
Cosmos 990 Rocket 4.2 13:25:17 10° NNW 13:30:14 46° WSW 13:35:12 10° S
